Regional Weather Roundup
Issued by NWS Tiyan, Guam

Home | Current Version | Previous Version | Text Only | Print | Product List | Glossary On
Versions: 1 2 3 4 5 6 7 8 9 10 11 12 13 14 15 16 17 18 19 20 21 22 23 24 25 26 27 28 29 30 31 32 33 34 35 36 37 38 39 40 41 42 43 44 45 46 47 48 49 50
000
ASGM40 PGUM 240312
RWRGUM
WEATHER ROUNDUP FOR THE MARIANAS
NATIONAL WEATHER SERVICE TIYAN GU
100 PM CHST WED JAN 24 2018

GUZ001>004-240400-
MARIANA ISLANDS-

CITY           SKY/WX    TMP DP  RH WIND       PRES   REMARKS
GUAM AIRPORT   PTSUNNY   84  75  74 E14       29.79F HX  92
ANDERSEN AFB   PTSUNNY   81  72  74 E15       29.80F
ROTA AIRPORT   PTSUNNY   82  72  69 E14G21    29.80F
TINIAN AP      MOSUNNY   82  73  74 NE17      29.78F
SAIPAN AP      MOSUNNY   86  72  62 NE18G25   29.79F HX  92

$$




USA.gov is the U.S. government's official web portal to all federal, state and local government web resources and services.